Regional Weather Roundup
Issued by NWS

Home | Current Version | Previous Version | Graphics & Text | Print | Product List | Glossary On
Versions: 1 2 3 4 5 6 7 8 9 10 11 12 13 14 15 16 17 18 19 20 21 22 23 24 25 26 27 28 29 30 31 32 33 34 35 36 37 38 39 40 41 42 43 44 45 46 47 48 49 50
000
ASUS45 KCYS 240810
RWRWY

WYOMING REGIONAL WEATHER ROUNDUP
NATIONAL WEATHER SERVICE CHEYENNE WY
200 AM MDT SAT JUN 24 2017

NOTE:  "FAIR" INDICATES FEW OR NO CLOUDS BELOW 12,000 FEET
WITH NO SIGNIFICANT WEATHER AND/OR OBSTRUCTIONS TO VISIBILITY.

WYZ001-240900-
YELLOWSTONE NATIONAL PARK

CITY           SKY/WX    TMP DP  RH WIND       PRES   REMARKS
LK YELLOWSTONE   N/A     33  27  78 NW3       30.42R
W YELLOWSTONE  NOT AVBL

$$
WYZ002>013-054>058-071-098>099-240900-
NORTHERN WYOMING

CITY           SKY/WX    TMP DP  RH WIND       PRES   REMARKS
JACKSON        FAIR      43  36  75 N7        30.34R
CODY           FAIR      47  33  58 S3        30.35S
GREYBULL       FAIR      53  31  42 W8        30.27S
WORLAND        FAIR      50  39  66 CALM      30.28S
SHERIDAN       FAIR      48  39  71 CALM      30.30S
BUFFALO        MOCLDY    50  33  52 NW3       30.34S
GILLETTE       FAIR      41  34  76 SW3       30.30S
NEWCASTLE      FAIR      45  30  57 S3        30.30S

$$
WYZ014>020-022>026-101>103-240900-
CENTRAL WYOMING

CITY           SKY/WX    TMP DP  RH WIND       PRES   REMARKS
BIG PINEY      FAIR      41  25  53 NW9       30.35S
PINEDALE       FAIR      39  30  70 NW6       30.36R WCI  35
DUBOIS         FAIR      41  28  60 NW7       30.39S
LANDER         FAIR      50  32  50 W10       30.33S
RIVERTON       FAIR      51  31  46 E7        30.34S
CASPER         FAIR      42  31  64 NE8       30.34S
DOUGLAS        FAIR      45  35  68 CALM      30.34F

$$
WYZ021-027>030-104>119-240900-
SOUTHERN WYOMING

CITY           SKY/WX    TMP DP  RH WIND       PRES   REMARKS
EVANSTON       FAIR      55  34  45 N6        30.34F
KEMMERER         N/A     45  28  53 N10       30.36S
FORT BRIDGER   FAIR      55  27  34 W6        30.37R
ROCK SPRINGS   FAIR      49  29  46 E10       30.34R
DIXON          FAIR      47  32  54 E3        30.29R
RAWLINS        FAIR      49  28  44 NE20G28   30.33S
SARATOGA       FAIR      46  36  66 E12       30.31S
LARAMIE        FAIR      45  33  63 E10       30.35F
CHEYENNE       CLOUDY    53  30  41 E8        30.35F
TORRINGTON     CLOUDY    54  34  46 CALM      30.30S
PINE BLUFFS    CLOUDY    52  46  82 CALM      30.34S

$$



USA.gov is the U.S. government's official web portal to all federal, state and local government web resources and services.